| time (UTC) | temp F | wind direction | speed MPH | gust MPH | rain 1hr in | rain 24hr in | rain mn in | humidity % | barometer mb |
| 20260506061530 | 47 | 305 | 2.0 | 5.0 | 0.00 | 0.00 | 0.00 | 59 | 1007.6 |
| 20260506060530 | 48 | 343 | 4.0 | 7.0 | 0.00 | 0.00 | 0.00 | 58 | 1007.5 |
| 20260506050529 | 49 | 315 | 2.0 | 5.0 | 0.00 | 0.00 | 0.00 | 55 | 1007.5 |
| 20260506044530 | 49 | 329 | 2.0 | 4.0 | 0.00 | 0.00 | 0.00 | 55 | 1007.1 |
| 20260506043525 | 49 | 307 | 2.0 | 5.0 | 0.00 | 0.00 | 0.00 | 55 | 1007.3 |
| 20260506042527 | 49 | 327 | 2.0 | 5.0 | 0.00 | 0.00 | 0.00 | 54 | 1007.2 |
| 20260506041524 | 49 | 326 | 2.0 | 7.0 | 0.00 | 0.00 | 0.00 | 55 | 1007.2 |
| 20260506040518 | 49 | 298 | 0.0 | 4.0 | 0.00 | 0.00 | 0.00 | 54 | 1007.3 |
| 20260506035519 | 49 | 336 | 0.0 | 4.0 | 0.00 | 0.00 | 0.00 | 55 | 1007.4 |
| 20260506034518 | 49 | 313 | 0.0 | 0.0 | 0.00 | 0.00 | 0.00 | 54 | 1007.5 |
| 20260506033516 | 49 | 305 | 0.0 | 4.0 | 0.00 | 0.00 | 0.00 | 54 | 1007.4 |
| 20260506032521 | 49 | 302 | 0.0 | 7.0 | 0.00 | 0.00 | 0.00 | 54 | 1007.4 |
| 20260506031515 | 50 | 350 | 0.0 | 5.0 | 0.00 | 0.00 | 0.00 | 53 | 1007.4 |
| 20260506030517 | 50 | 323 | 0.0 | 4.0 | 0.00 | 0.00 | 0.00 | 53 | 1007.3 |
| 20260506025517 | 50 | 291 | 0.0 | 4.0 | 0.00 | 0.00 | 0.00 | 52 | 1007.4 |
| 20260506024518 | 50 | 178 | 0.0 | 4.0 | 0.00 | 0.00 | 0.00 | 52 | 1007.6 |
| 20260506023516 | 50 | 326 | 0.0 | 4.0 | 0.00 | 0.00 | 0.00 | 52 | 1007.4 |
| 20260506022519 | 50 | 184 | 0.0 | 4.0 | 0.00 | 0.00 | 0.00 | 53 | 1007.4 |
| 20260506021517 | 50 | 236 | 0.0 | 4.0 | 0.00 | 0.00 | 0.00 | 50 | 1007.7 |
| 20260506020511 | 50 | 280 | 0.0 | 2.0 | 0.00 | 0.00 | 0.00 | 51 | 1007.5 |
| 20260506015510 | 51 | 314 | 2.0 | 7.0 | 0.00 | 0.00 | 0.00 | 49 | 1007.2 |
| 20260506014510 | 51 | 316 | 0.0 | 7.0 | 0.00 | 0.00 | 0.00 | 50 | 1007.0 |
| 20260506013514 | 51 | 257 | 0.0 | 7.0 | 0.00 | 0.00 | 0.00 | 50 | 1007.0 |
| 20260506012510 | 51 | 252 | 0.0 | 5.0 | 0.00 | 0.00 | 0.00 | 50 | 1006.9 |
| 20260506011506 | 51 | 268 | 0.0 | 4.0 | 0.00 | 0.00 | 0.00 | 49 | 1006.8 |
| 20260506010503 | 51 | 305 | 2.0 | 5.0 | 0.00 | 0.00 | 0.00 | 47 | 1006.8 |
| 20260506005500 | 52 | 220 | 0.0 | 7.0 | 0.00 | 0.00 | 0.00 | 47 | 1006.9 |
| 20260506004503 | 52 | 279 | 0.0 | 7.0 | 0.00 | 0.00 | 0.00 | 48 | 1006.9 |
| 20260506003502 | 52 | 279 | 0.0 | 7.0 | 0.00 | 0.00 | 0.00 | 47 | 1006.8 |
| 20260506002501 | 52 | 290 | 0.0 | 5.0 | 0.00 | 0.00 | 0.00 | 47 | 1006.7 |
| 20260506001501 | 52 | 288 | 0.0 | 4.0 | 0.00 | 0.00 | 0.00 | 48 | 1006.8 |
| 20260506000503 | 53 | 350 | 2.0 | 5.0 | 0.00 | 0.00 | 0.00 | 47 | 1006.5 |
| 20260505235500 | 53 | 344 | 2.0 | 5.0 | 0.00 | 0.00 | 0.00 | 49 | 1006.3 |
| 20260505234500 | 53 | 270 | 0.0 | 9.0 | 0.00 | 0.00 | 0.00 | 50 | 1006.3 |
| 20260505233500 | 53 | 108 | 2.0 | 7.0 | 0.00 | 0.00 | 0.00 | 51 | 1006.2 |
| 20260505232459 | 53 | 150 | 2.0 | 7.0 | 0.00 | 0.00 | 0.00 | 56 | 1006.0 |
| 20260505231500 | 53 | 142 | 0.0 | 4.0 | 0.00 | 0.00 | 0.00 | 58 | 1006.0 |
| 20260505230501 | 53 | 164 | 2.0 | 7.0 | 0.00 | 0.00 | 0.00 | 59 | 1006.0 |
| 20260505225458 | 54 | 244 | 0.0 | 5.0 | 0.00 | 0.00 | 0.00 | 58 | 1006.1 |
| 20260505224503 | 54 | 203 | 2.0 | 9.0 | 0.00 | 0.00 | 0.00 | 58 | 1006.2 |
| 20260505223504 | 54 | 186 | 0.0 | 5.0 | 0.00 | 0.00 | 0.00 | 57 | 1006.2 |
| 20260505222457 | 54 | 173 | 0.0 | 4.0 | 0.00 | 0.00 | 0.00 | 58 | 1006.2 |
| 20260505221454 | 54 | 161 | 2.0 | 12.0 | 0.00 | 0.00 | 0.00 | 57 | 1006.2 |
| 20260505220452 | 54 | 239 | 0.0 | 9.0 | 0.00 | 0.00 | 0.00 | 57 | 1006.2 |
| 20260505215457 | 54 | 258 | 2.0 | 11.0 | 0.00 | 0.00 | 0.00 | 57 | 1006.3 |
| 20260505214457 | 54 | 116 | 2.0 | 7.0 | 0.00 | 0.00 | 0.00 | 57 | 1006.3 |
| 20260505213452 | 54 | 307 | 2.0 | 7.0 | 0.00 | 0.00 | 0.00 | 57 | 1006.2 |
| 20260505212454 | 54 | 199 | 2.0 | 7.0 | 0.00 | 0.00 | 0.00 | 56 | 1006.2 |
| 20260505211456 | 54 | 333 | 2.0 | 9.0 | 0.00 | 0.00 | 0.00 | 59 | 1006.3 |
| 20260505210502 | 54 | 172 | 2.0 | 5.0 | 0.00 | 0.00 | 0.00 | 62 | 1006.3 |
| 20260505205451 | 54 | 142 | 2.0 | 11.0 | 0.00 | 0.00 | 0.00 | 65 | 1006.3 |
| 20260505204451 | 54 | 153 | 0.0 | 7.0 | 0.00 | 0.00 | 0.00 | 64 | 1006.2 |
| 20260505203448 | 54 | 177 | 0.0 | 5.0 | 0.00 | 0.00 | 0.00 | 64 | 1006.2 |
| 20260505202449 | 54 | 217 | 0.0 | 7.0 | 0.00 | 0.00 | 0.00 | 63 | 1006.2 |
| 20260505201450 | 55 | 169 | 2.0 | 5.0 | 0.00 | 0.00 | 0.00 | 62 | 1006.2 |
| 20260505200445 | 54 | 182 | 0.0 | 5.0 | 0.00 | 0.00 | 0.00 | 63 | 1006.3 |
| 20260505195446 | 54 | 278 | 2.0 | 9.0 | 0.00 | 0.00 | 0.00 | 62 | 1006.4 |
| 20260505194446 | 54 | 292 | 2.0 | 5.0 | 0.00 | 0.00 | 0.00 | 62 | 1006.3 |
| 20260505193449 | 54 | 186 | 2.0 | 9.0 | 0.00 | 0.00 | 0.00 | 62 | 1006.4 |
| 20260505192446 | 54 | 309 | 2.0 | 11.0 | 0.00 | 0.00 | 0.00 | 63 | 1006.5 |
| 20260505191440 | 55 | 311 | 2.0 | 11.0 | 0.00 | 0.00 | 0.00 | 63 | 1006.4 |
| 20260505190440 | 54 | 175 | 2.0 | 5.0 | 0.00 | 0.00 | 0.00 | 63 | 1006.5 |
| 20260505185439 | 55 | 270 | 2.0 | 7.0 | 0.00 | 0.00 | 0.00 | 62 | 1006.5 |
| 20260505184440 | 55 | 243 | 2.0 | 11.0 | 0.00 | 0.00 | 0.00 | 63 | 1006.4 |
| 20260505183440 | 54 | 251 | 2.0 | 11.0 | 0.00 | 0.00 | 0.00 | 63 | 1006.2 |
| 20260505182438 | 55 | 242 | 4.0 | 5.0 | 0.00 | 0.00 | 0.00 | 62 | 1006.0 |
| 20260505181439 | 55 | 331 | 4.0 | 14.0 | 0.00 | 0.00 | 0.00 | 65 | 1005.8 |
| 20260505180437 | 54 | 0 | 2.0 | 9.0 | 0.00 | 0.00 | 0.00 | 66 | 1005.8 |
| 20260505175440 | 54 | 151 | 2.0 | 9.0 | 0.00 | 0.00 | 0.00 | 69 | 1005.7 |
| 20260505174436 | 53 | 162 | 2.0 | 9.0 | 0.00 | 0.00 | 0.00 | 70 | 1005.6 |
| 20260505173441 | 53 | 216 | 4.0 | 11.0 | 0.00 | 0.00 | 0.00 | 71 | 1005.8 |
| 20260505172435 | 53 | 190 | 4.0 | 12.0 | 0.00 | 0.00 | 0.00 | 72 | 1005.6 |
| 20260505171437 | 53 | 160 | 2.0 | 11.0 | 0.00 | 0.00 | 0.00 | 75 | 1005.8 |
| 20260505170435 | 53 | 5 | 4.0 | 11.0 | 0.00 | 0.00 | 0.00 | 75 | 1005.7 |
| 20260505165439 | 52 | 230 | 2.0 | 12.0 | 0.00 | 0.00 | 0.00 | 76 | 1005.9 |
| 20260505164436 | 51 | 186 | 4.0 | 12.0 | 0.00 | 0.00 | 0.00 | 79 | 1005.9 |
| 20260505163436 | 51 | 174 | 2.0 | 7.0 | 0.00 | 0.00 | 0.00 | 80 | 1005.7 |
| 20260505162435 | 50 | 165 | 2.0 | 4.0 | 0.00 | 0.00 | 0.00 | 80 | 1005.9 |
| 20260505161437 | 50 | 180 | 2.0 | 5.0 | 0.00 | 0.00 | 0.00 | 80 | 1006.0 |
| 20260505160437 | 50 | 167 | 2.0 | 5.0 | 0.00 | 0.00 | 0.00 | 78 | 1005.9 |
| 20260505152435 | 51 | 309 | 2.0 | 5.0 | 0.00 | 0.00 | 0.00 | 72 | 1006.0 |
| 20260505151436 | 52 | 340 | 2.0 | 5.0 | 0.00 | 0.00 | 0.00 | 71 | 1005.6 |
| 20260505150430 | 52 | 333 | 2.0 | 5.0 | 0.00 | 0.00 | 0.00 | 72 | 1005.6 |
| 20260505140429 | 53 | 317 | 2.0 | 5.0 | 0.00 | 0.00 | 0.00 | 72 | 1005.0 |
| 20260505124421 | 53 | 87 | 2.0 | 7.0 | 0.00 | 0.00 | 0.00 | 75 | 1003.1 |
| 20260505123423 | 53 | 336 | 2.0 | 7.0 | 0.00 | 0.00 | 0.00 | 76 | 1003.2 |
| 20260505122422 | 53 | 333 | 2.0 | 9.0 | 0.00 | 0.00 | 0.00 | 78 | 1002.9 |
| 20260505121426 | 54 | 331 | 4.0 | 9.0 | 0.00 | 0.00 | 0.00 | 80 | 1002.8 |
| 20260505120417 | 55 | 320 | 2.0 | 9.0 | 0.00 | 0.00 | 0.00 | 79 | 1002.8 |
| 20260505115415 | 56 | 335 | 2.0 | 5.0 | 0.00 | 0.00 | 0.00 | 78 | 1002.4 |
| 20260505114418 | 56 | 241 | 2.0 | 9.0 | 0.00 | 0.00 | 0.00 | 78 | 1002.4 |
| 20260505113416 | 56 | 173 | 0.0 | 5.0 | 0.00 | 0.00 | 0.00 | 79 | 1002.0 |
| 20260505112413 | 56 | 188 | 0.0 | 4.0 | 0.00 | 0.00 | 0.00 | 80 | 1001.7 |
| 20260505111416 | 56 | 166 | 0.0 | 7.0 | 0.00 | 0.00 | 0.00 | 82 | 1001.4 |
| 20260505110412 | 56 | 124 | 0.0 | 5.0 | 0.00 | 0.00 | 0.00 | 83 | 1001.2 |
| 20260505101406 | 56 | 200 | 0.0 | 5.0 | 0.00 | 0.00 | 0.00 | 84 | 1000.2 |
| 20260505100408 | 57 | 229 | 2.0 | 7.0 | 0.00 | 0.00 | 0.00 | 83 | 1000.1 |
| 20260505095406 | 57 | 216 | 2.0 | 9.0 | 0.00 | 0.00 | 0.00 | 83 | 1000.1 |
| 20260505094404 | 58 | 220 | 2.0 | 7.0 | 0.00 | 0.00 | 0.00 | 82 | 1000.0 |
| 20260505093401 | 58 | 263 | 2.0 | 18.0 | 0.00 | 0.00 | 0.00 | 82 | 1000.0 |
| 20260505092402 | 58 | 237 | 2.0 | 9.0 | 0.00 | 0.00 | 0.00 | 81 | 1000.1 |
| 20260505091401 | 58 | 217 | 2.0 | 7.0 | 0.00 | 0.00 | 0.00 | 79 | 999.9 |
| 20260505090359 | 59 | 238 | 4.0 | 12.0 | 0.00 | 0.00 | 0.00 | 78 | 999.8 |
| 20260505085359 | 59 | 222 | 4.0 | 16.0 | 0.00 | 0.00 | 0.00 | 77 | 999.8 |
| 20260505084359 | 60 | 251 | 2.0 | 12.0 | 0.00 | 0.00 | 0.00 | 75 | 999.7 |
| 20260505083358 | 60 | 178 | 2.0 | 9.0 | 0.00 | 0.00 | 0.00 | 75 | 999.4 |
| 20260505082358 | 60 | 265 | 2.0 | 18.0 | 0.00 | 0.00 | 0.00 | 74 | 999.3 |
| 20260505081356 | 60 | 234 | 2.0 | 12.0 | 0.00 | 0.00 | 0.00 | 73 | 999.4 |
| 20260505080358 | 60 | 212 | 2.0 | 5.0 | 0.00 | 0.00 | 0.00 | 73 | 999.4 |
| 20260505075359 | 60 | 153 | 2.0 | 12.0 | 0.00 | 0.00 | 0.00 | 73 | 999.2 |
| 20260505074356 | 60 | 137 | 2.0 | 7.0 | 0.00 | 0.00 | 0.00 | 73 | 999.0 |
| 20260505073355 | 60 | 219 | 2.0 | 11.0 | 0.00 | 0.00 | 0.00 | 73 | 998.7 |
| 20260505072357 | 60 | 241 | 2.0 | 9.0 | 0.00 | 0.00 | 0.00 | 74 | 998.5 |
| 20260505071354 | 60 | 201 | 0.0 | 4.0 | 0.00 | 0.00 | 0.00 | 76 | 998.5 |
| 20260505070354 | 60 | 286 | 0.0 | 9.0 | 0.00 | 0.00 | 0.00 | 77 | 998.7 |